Sisseton, SD

3:26 PM CST on December 07, 2016 (GMT -0600)
Sisseton

Weather History for K8D3 - July, 2014

Change the Weather History Date:

Wednesday, July 2, 2014

  Actual Average Record
Temperature  
Mean Temperature 64 °F 70 °F  
Max Temperature 73 °F 81 °F 100 °F (1949)
Min Temperature 54 °F 59 °F 44 °F (1994)
Degree Days  
Heating Degree Days 1 1  
Month to date heating degree days 6 2  
Since 1 June heating degree days 41 64  
Since 1 July heating degree days 6 2  
Cooling Degree Days 0 6  
Month to date cooling degree days 0 11  
Year to date cooling degree days 149 128  
Since 1 June cooling degree days 88 105  
Growing Degree Days 14 (Base 50)    
Moisture  
Dew Point 50 °F    
Average Humidity 64    
Maximum Humidity 86    
Minimum Humidity 41    
Precipitation  
Precipitation 0.00 in 0.11 in 3.65 in (1903)
Month to date precipitation 0.10 0.22  
Year to date precipitation 17.14 10.94  
Sea Level Pressure  
Sea Level Pressure 30.09 in    
Wind  
Wind Speed 10 mph (North)    
Max Wind Speed 20 mph    
Max Gust Speed 23 mph    
T = Trace of Precipitation, MM = Missing Value Source: NWS Daily Summary

Daily Weather History Graph

Daily Weather History Graph

Search for Another Location

Airport or City:

Trip Planner

Search our weather history database for the weather conditions in past years. The results will help you decide how hot, cold, wet, or windy it might be!

Date:

Astronomy

Jul. 02, 2014 Rise Set
Actual Time 5:43 AM CDT 9:20 PM CDT
Civil Twilight 5:05 AM CDT 9:58 PM CDT
Nautical Twilight 4:14 AM CDT 10:48 PM CDT
Astronomical Twilight 3:06 AM CDT 11:56 PM CDT
Moon 11:04 AM CDT (7/2) 11:56 PM CDT (7/2)
Length of Visible Light 16h 53m
Length of Day
15h 37m
Waxing Crescent, 24% of the Moon is Illuminated
Jul 2
Waxing Crescent
Jul 5
First Quarter
Jul 12
Full
Jul 18
Last Quarter
Jul 26
New

Hourly Weather History & Observations

Time (CDT) Temp. Dew Point Humidity Pressure Visibility Wind Dir Wind Speed Gust Speed Precip Events Conditions
12:56 AM 55.0 °F 51.1 °F 86% 29.99 in - North 12.7 mph - N/A   Unknown
1:56 AM 55.9 °F 51.1 °F 84% 30.01 in - North 12.7 mph - N/A   Unknown
2:56 AM 55.9 °F 51.1 °F 84% 30.02 in - NNW 11.5 mph - N/A   Unknown
3:56 AM 55.9 °F 51.1 °F 84% 30.03 in - NNW 12.7 mph - N/A   Unknown
4:56 AM 55.0 °F 50.0 °F 83% 30.05 in - NNW 9.2 mph - N/A   Unknown
5:56 AM 54.0 °F 48.9 °F 83% 30.07 in - NNW 11.5 mph - N/A   Unknown
6:56 AM 54.0 °F 48.9 °F 83% 30.09 in - NNW 12.7 mph - N/A   Unknown
7:56 AM 55.9 °F 48.9 °F 77% 30.11 in - NNW 12.7 mph - N/A   Unknown
8:56 AM 60.1 °F 48.9 °F 67% 30.12 in - NNW 12.7 mph - N/A   Unknown
9:56 AM 63.0 °F 50.0 °F 63% 30.12 in - North 10.4 mph - N/A   Unknown
10:56 AM 66.0 °F 48.9 °F 54% 30.13 in - North 15.0 mph - N/A   Unknown
11:56 AM 68.0 °F 46.0 °F 45% 30.12 in - North 16.1 mph 20.7 mph N/A   Unknown
12:56 PM 70.0 °F 48.0 °F 46% 30.11 in - NNW 13.8 mph - N/A   Unknown
1:56 PM 71.1 °F 46.0 °F 41% 30.11 in - NNE 13.8 mph - N/A   Unknown
2:56 PM 73.0 °F 48.0 °F 41% 30.10 in - NNW 11.5 mph - N/A   Unknown
3:56 PM 71.1 °F 48.0 °F 44% 30.10 in - North 13.8 mph - N/A   Unknown
4:56 PM 71.1 °F 48.0 °F 44% 30.09 in - North 11.5 mph - N/A   Unknown
5:56 PM 70.0 °F 48.0 °F 46% 30.09 in - North 11.5 mph - N/A   Unknown
6:56 PM 69.1 °F 48.0 °F 47% 30.09 in - North 9.2 mph - N/A   Unknown
7:56 PM 68.0 °F 48.9 °F 50% 30.09 in - North 6.9 mph - N/A   Unknown
8:56 PM 66.0 °F 54.0 °F 65% 30.09 in - NNE 3.5 mph - N/A   Unknown
9:56 PM 63.0 °F 55.0 °F 75% 30.10 in - Calm Calm - N/A   Unknown
10:56 PM 62.1 °F 55.9 °F 80% 30.11 in - Calm Calm - N/A   Unknown
11:56 PM 61.0 °F 55.9 °F 83% 30.11 in - Calm Calm - N/A   Unknown